Погода в Ростовском

Россия / Архангельская область     62°46′42″N   43°09′16″E
В апреле 2022 года жителям России запретили посещать сайт meteo.paraplan.net по решению Генеральной прокуратуры. Аудитория сайта уменьшилась в 10 раз. Владельцы сайта не видят смысла в поддержке погодного сервера в таких условиях. Сайт будет закрыт в октябре.
темп.,
°C
ветер,
м/с
пор.,
м/с
влажн.,
%
обл.,
%
осадки,
мм/ч
давл.,
гПа
погр.,
м
30 сентября, пт
пт3000:00+1юв41198100 0.8 1017583
03:00+1юв41098100 2.0 1017548
06:00+2юв41098100 0.1 1017517
09:00+3юв41196100 0.3 1017486
12:00+4юв51396100 0.6 1016545
15:00+6юв41297100 2.0 1015603
18:00+7ююв31198100 3.6 1015632
21:00+9ююв51397100 7.1 1014753
1 октября, сб
сб100:00+8ююв41298100 3.1 1013635
03:00+8ююв2799100 4.6 1013291
06:00+8ююз3898100 0.0 1013396
09:00+8юз369076 0.4 1014506
12:00+9зюз3684100 0.1 1015785
15:00+9зюз2480100 0.1 1015418
18:00+7зюз2286100 0.0 101561
21:00+6юз1191100 0.1 101529
2 октября, вс
вс200:00+7ююз1183100 0.0 101411
03:00+6св1185100 0.0 101214
06:00+6св228999 0.0 101247
09:00+7св268697 0.0 1010274
12:00+8св3687100 0.1 1008429
15:00+7ссв41093100 0.8 1007467
18:00+7с31094100 1.8 1006517
21:00+7с41094100 3.6 1006532
3 октября, пн
пн300:00+6ссз31091100 0.3 1007499
03:00+3ссз399743 0.3 1010293
06:00+2ссз269932 0.0 1012168
09:00+5ссв2587100 0.0 1013285
12:00+8св2472100 0.0 1014690
15:00+8всв2678100 0.0 1014485
18:00+7в31086100 0.3 1014540
21:00+7всв51394100 3.6 1012583
4 октября, вт
вт400:00+7в51493100 2.8 1010641
03:00+8в51496100 3.7 1008542
06:00+10вюв41398100 1.2 1008565
09:00+12ююв5129160 1.2 1009913
12:00+13ююв61287100 0.4 10101052
15:00+13ююв4107646 0.7 10111115
18:00+10ююв3119097 0.3 1013418
21:00+8ююв411870 0.4 1014519